Main page
METAR-TAF:

METAR-TAF

Airports :

Nueces County Airport

Robstown, Texas, United States

latitude: 27-46-42N, longitude: 097-41-25W, elevation: 79 ft

Current weather observation

The report was made 22 minutes ago, at 11:15 UTC
Wind 14 mph from the North
Temperature 50°F
Humidity 100%
Pressure 30.13 in. Hg
Visibility: 10 miles
Overcast at a height of 600 ft

METAR: KRBO 201115Z AUTO 36012KT 10SM OVC006 10/10 A3013 RMK AO2 T01030098

Time: 05:37 (11:37 UTC)


TAF: missing

Weather observations and forecasts of more than 4000 airports (METAR and TAF reports).

The available stations are represented by yellow and red dots on the map.

Hover mouse over dot to see the name of the station.

Then click to see weather observations and forecasts.

To change the map : click on the green buttons with a black cross to zoom in, on the green button with a dash to zoom out, or on the green arrows for adjacent maps.


METAR-TAF: